EHI
5 5 5 5 5 3 2 1 0 1 2 3 3 3 2 3 4 4 4 6 11 14 17 19 20 18 15 14 14 12 10 7 4 1 1 0 0 0 0 0 0 0 0
4 4 4 4 4 2 1 0 0 0 1 2 2 2 1 1 1 2 2 4 9 14 16 17 18 16 13 12 13 11 9 7 5 3 2 1 0 0 0 0 0 0 0
3 3 3 3 3 1 0 0 0 0 0 1 1 1 0 0 0 0 0 2 6 9 11 13 15 13 9 8 8 7 6 5 5 5 4 2 1 0 0 0 0 0 0
3 3 3 3 2 1 0 0 0 0 0 0 0 0 0 0 0 0 0 0 2 3 4 7 9 9 6 4 4 4 4 4 4 4 3 3 2 1 0 0 0 0 0
1 2 2 1 1 0 0 0 0 0 0 0 0 0 0 0 0 0 0 0 0 0 1 3 5 5 4 3 3 3 3 3 3 2 1 2 3 2 1 0 0 0 0
0 1 1 0 0 0 0 0 0 0 0 0 0 0 0 0 0 0 0 0 0 1 2 3 3 3 2 2 2 3 3 3 2 1 0 1 3 2 1 0 0 0 0
0 0 0 0 0 0 0 0 0 0 0 0 0 0 0 0 0 0 0 0 0 1 2 2 2 2 2 1 1 1 2 2 1 0 0 0 1 1 0 0 0 0 0
0 0 0 0 0 0 0 0 0 0 0 0 0 0 0 0 0 0 0 0 0 0 1 1 1 1 1 0 0 0 1 1 1 0 0 0 0 0 0 0 0 0 0
0 0 0 0 0 0 0 0 0 0 0 0 0 0 0 0 0 0 0 0 0 0 0 0 0 0 0 0 0 0 0 0 0 0 0 0 0 0 0 0 0 0 0
0 0 0 0 0 0 0 0 0 0 0 0 0 0 0 0 0 0 0 0 0 0 0 0 0 0 0 0 0 0 0 0 0 0 0 0 0 0 0 0 0 0 0
0 0 0 0 0 0 0 0 0 0 0 0 0 0 0 0 0 0 0 0 0 0 0 0 0 0 0 0 0 0 0 0 0 0 0 0 0 0 0 0 0 0 0
0 0 0 0 0 0 0 0 0 0 0 0 0 0 0 0 0 0 0 0 0 0 0 0 0 0 0 0 0 0 0 0 0 0 0 0 0 0 0 0 0 0 0
0 0 0 0 0 0 0 0 0 0 0 0 0 0 0 0 0 0 0 0 0 0 0 0 0 0 0 0 0 0 0 0 0 0 0 0 0 0 0 0 0 0 0
0 0 0 0 0 0 0 0 0 0 0 0 0 0 0 0 0 0 0 0 0 0 0 0 0 0 0 0 0 0 0 0 0 0 0 0 0 0 0 0 0 0 0
0 0 0 0 0 0 0 0 0 0 0 0 0 0 0 0 0 0 0 0 0 0 0 0 0 0 0 0 0 0 0 0 0 0 0 0 0 0 0 0 0 0 0
0 0 0 0 0 0 0 0 0 0 0 0 0 0 0 0 0 0 0 0 0 0 0 0 0 0 0 0 0 0 0 0 0 0 0 0 0 0 0 0 0 0 0
0 0 0 0 0 0 0 0 0 0 0 0 0 0 0 0 0 0 0 0 0 0 0 0 0 0 0 0 0 0 0 0 0 0 0 0 0 0 0 0 0 0 0
0 0 0 0 0 0 0 0 0 0 0 0 0 0 0 0 0 0 0 0 0 0 0 0 0 0 0 0 0 0 0 0 0 0 0 0 0 0 0 0 0 0 0
0 0 0 0 0 0 0 0 0 0 0 0 0 0 0 0 0 0 0 0 0 0 0 0 0 0 0 0 0 0 0 0 0 0 0 0 0 0 0 0 0 0 0
0 0 0 0 0 0 0 0 0 0 0 0 0 0 0 0 0 0 0 0 0 0 0 0 0 0 0 0 0 0 0 0 0 0 0 0 0 0 0 0 0 0 0
0 0 0 0 0 0 0 0 0 0 0 0 0 0 0 0 0 0 0 0 0 0 0 0 0 0 0 0 0 0 0 0 0 0 0 0 0 0 0 0 0 0 0
0 0 0 0 0 0 0 0 0 0 0 0 0 0 0 0 0 0 0 0 0 0 0 0 0 0 0 0 0 0 0 0 0 0 0 0 0 0 0 0 0 0 0
0 0 0 0 0 0 0 0 0 0 0 0 0 0 0 0 0 0 0 0 0 0 0 0 0 0 0 0 0 0 0 0 0 0 0 0 0 0 0 0 0 0 0
0 0 0 0 0 0 0 0 0 0 0 0 0 0 0 0 0 0 0 0 0 0 0 0 0 0 0 0 0 0 0 0 0 0 0 0 0 0 0 0 0 0 0
0 0 0 0 0 0 0 0 0 0 0 0 0 0 0 0 0 0 0 0 0 0 0 0 0 0 0 0 0 0 0 0 0 0 0 0 0 0 0 0 0 0 0
0 0 0 0 0 0 0 0 0 0 0 0 0 0 0 0 0 0 0 0 0 0 0 0 0 0 0 0 0 0 0 0 0 0 0 0 0 0 0 0 0 0 0
Wind_Speed
3 2 2 1 1 1 1 1 0 1 1 1 1 2 2 2 2 3 3 6 8 9 11 12 12 12 13 13 13 13 13 13 12 12 11 10 10 10 10 9 9 9 9
3 3 2 1 1 1 1 1 1 1 0 1 1 1 2 2 1 2 2 3 4 6 7 9 10 11 12 12 12 12 12 12 11 11 10 10 9 9 9 9 9 9 8
3 3 2 1 1 1 1 1 1 0 0 1 2 2 2 3 3 2 2 2 2 2 4 6 7 8 10 11 12 12 12 11 11 10 10 9 8 7 7 7 8 8 7
4 3 2 2 1 1 1 1 1 1 1 1 1 2 2 3 3 3 3 2 2 2 3 3 4 5 6 9 10 11 12 12 11 11 10 10 9 8 7 6 6 6 6
4 3 2 2 2 2 1 1 1 1 1 1 1 2 2 3 3 4 4 4 3 3 3 4 5 4 5 7 8 10 11 11 10 10 10 9 9 8 7 6 6 6 6
5 4 4 4 3 3 3 2 2 2 2 1 2 2 3 3 3 3 4 4 4 4 4 4 4 4 5 4 4 5 8 8 8 9 8 8 7 6 6 5 4 4 4
7 6 5 5 4 4 3 2 2 3 2 1 1 1 2 3 3 3 3 4 5 5 5 5 4 4 4 5 5 3 3 2 3 4 4 4 4 4 4 4 3 3 4
8 6 7 5 5 5 5 4 2 2 2 3 1 1 1 2 3 4 4 4 5 5 6 6 6 5 5 3 5 6 4 2 1 1 1 1 1 0 1 1 2 4 5
9 8 8 6 6 5 5 5 4 2 2 3 3 1 1 1 1 2 4 5 6 6 6 5 6 6 6 4 4 7 8 7 5 5 4 4 2 3 2 2 3 4 5
9 8 9 8 8 7 7 6 6 4 3 3 3 4 3 2 0 0 2 4 6 7 7 6 7 7 6 5 6 9 11 11 10 10 9 8 7 5 4 4 4 5 5
9 9 9 9 9 8 8 9 8 8 6 5 4 3 4 4 4 1 1 3 3 5 6 7 6 6 6 5 4 7 10 10 9 8 8 7 7 6 6 5 6 6 6
7 10 10 9 9 8 9 8 8 10 8 8 7 6 4 4 3 3 2 2 3 3 4 5 6 6 5 5 6 9 8 8 8 7 7 6 6 6 6 7 7 7 7
7 8 9 9 8 8 8 8 9 9 9 9 8 6 5 5 3 2 2 1 2 2 3 3 5 5 6 5 5 9 8 7 6 6 6 6 6 6 6 7 7 7 8
6 7 9 9 9 9 9 8 8 8 8 8 8 6 5 5 4 3 2 1 1 2 3 4 3 5 5 5 6 8 5 8 7 6 7 7 8 8 8 8 9 9 8
7 9 9 9 8 8 8 8 7 7 7 6 6 6 5 4 4 4 3 2 1 2 2 3 3 4 5 4 6 5 5 7 9 9 9 9 9 9 9 9 10 9 9
8 8 9 9 8 8 8 7 6 6 7 6 4 6 5 3 4 4 3 3 2 1 1 2 2 4 5 4 7 5 5 9 9 10 10 10 9 10 10 10 10 10 10
7 8 8 8 8 8 7 7 6 6 7 6 5 5 5 4 4 3 3 3 3 2 1 2 2 3 4 5 6 5 5 4 5 10 10 10 9 9 9 9 9 9 9
7 7 7 7 8 7 6 6 6 6 6 5 5 5 4 3 4 3 2 3 2 1 1 3 3 3 4 5 6 6 5 5 5 9 10 10 9 8 8 8 8 8 8
6 6 7 7 7 6 6 5 5 5 4 4 4 4 3 3 3 2 2 2 2 2 1 2 3 2 3 3 4 4 5 4 6 6 7 7 8 8 8 7 7 7 7
6 6 6 6 5 5 5 5 5 5 4 4 4 3 3 2 2 2 2 2 2 2 2 2 3 3 3 3 3 4 5 5 5 5 6 7 7 8 7 7 7 7 6
5 5 5 5 5 4 5 4 4 4 4 4 4 4 3 4 4 3 3 3 3 2 2 3 3 3 3 3 3 3 4 6 5 2 5 5 5 4 5 6 7 8 7
5 5 5 5 5 4 6 7 5 4 4 4 4 4 4 4 6 8 8 7 5 3 3 2 2 4 5 4 3 3 3 4 5 3 4 5 3 4 4 4 7 8 8
4 4 4 4 4 5 7 7 6 3 3 3 3 4 4 5 7 6 8 9 8 7 5 4 5 5 5 4 4 5 4 4 4 4 3 4 3 4 4 4 8 7 8
3 3 3 3 3 5 8 7 6 4 3 4 4 4 4 6 6 7 7 7 7 6 5 4 6 7 8 7 5 4 4 5 6 3 2 3 3 4 4 4 5 7 8
2 2 2 2 3 4 7 8 6 4 4 5 5 5 5 6 8 8 5 7 8 6 5 6 7 9 11 10 6 3 3 3 3 3 1 2 3 4 4 3 4 6 8
2 2 2 2 3 3 6 8 7 3 4 5 6 5 6 7 10 8 4 4 6 7 8 9 7 7 6 5 2 3 3 2 2 3 1 1 2 3 4 3 3 4 5
Wind_Direction
186 191 189 187 192 190 190 196 212 275 297 305 302 291 289 275 273 267 273 269 253 241 235 226 220 220 219 216 216 214 214 213 209 204 200 200 198 197 197 198 198 199 200
183 188 195 194 202 192 181 180 195 210 312 337 337 327 320 324 321 303 288 291 277 254 240 232 227 223 222 220 214 211 211 212 210 206 202 202 203 203 203 205 205 206 207
180 173 172 181 201 174 153 144 142 89 349 10 356 356 360 3 1 351 341 333 326 295 259 246 237 232 227 224 219 214 211 210 208 203 201 198 197 199 200 204 208 211 213
161 156 155 165 153 128 125 135 111 83 29 29 16 6 9 8 11 6 6 4 3 354 335 307 269 246 240 236 232 226 218 213 211 210 207 203 200 198 198 199 205 209 214
134 134 129 109 100 97 93 117 93 108 88 75 58 31 18 16 11 14 14 11 12 10 2 350 332 298 268 257 248 240 231 219 216 216 213 210 206 202 205 207 210 216 223
84 96 91 77 75 80 69 67 83 70 65 71 77 55 36 26 25 23 13 14 15 17 15 7 354 349 336 313 286 263 248 235 221 215 215 211 201 199 203 207 212 223 234
67 71 78 71 67 72 64 61 86 79 52 27 86 60 38 39 35 22 18 22 23 20 21 19 12 4 356 5 1 340 294 252 211 199 204 205 207 205 203 208 215 234 246
62 70 72 70 65 72 59 43 54 93 56 24 61 121 22 10 31 31 28 32 26 23 23 24 23 18 9 5 15 14 3 339 279 218 174 120 77 325 261 249 249 255 253
63 69 76 75 69 73 70 51 41 72 101 53 37 63 150 213 359 18 33 33 30 28 22 19 22 20 15 16 15 24 40 46 47 51 56 55 48 42 20 5 325 299 286
63 63 69 70 69 67 65 56 51 48 66 62 41 34 44 48 91 339 21 28 33 32 25 22 19 18 17 20 31 38 49 51 52 49 46 42 37 33 25 15 359 349 333
58 61 65 68 68 66 67 63 59 60 60 61 51 34 37 36 33 54 18 3 18 26 25 23 18 14 14 18 24 42 51 50 49 44 36 27 23 15 5 357 348 339 328
61 60 66 68 66 66 65 65 64 64 66 66 61 53 50 45 28 38 40 358 356 359 10 21 20 14 12 12 25 41 44 46 42 36 27 13 4 356 346 341 334 329 326
66 59 64 66 66 64 65 66 66 63 62 65 63 60 57 51 34 33 52 15 8 350 351 8 12 11 13 10 15 23 27 26 22 12 0 352 346 340 334 330 323 321 320
73 70 69 67 65 65 67 67 67 64 63 65 64 61 59 47 42 42 40 30 27 8 11 356 345 3 2 0 7 10 8 4 355 342 331 328 325 320 316 312 308 306 304
77 70 68 66 63 62 63 66 67 64 64 62 61 60 57 44 42 42 43 42 57 23 358 340 333 337 341 344 354 351 343 339 337 332 325 319 315 310 306 302 300 298 293
72 72 69 65 62 59 60 64 64 61 65 56 57 59 53 40 39 38 38 39 46 76 344 317 308 309 320 334 342 340 331 332 324 320 314 307 302 297 295 295 294 293 292
72 72 71 68 63 57 54 61 60 60 63 55 49 55 50 42 41 33 34 37 36 36 347 303 287 302 311 324 332 328 320 316 312 311 310 307 303 299 296 295 295 293 292
72 73 72 69 65 58 52 56 58 55 57 52 43 48 42 44 43 32 31 29 21 15 335 312 309 313 308 317 321 321 325 326 318 312 315 318 319 319 315 309 304 298 295
71 67 68 67 62 56 52 50 56 54 51 44 36 39 30 37 29 17 11 6 351 353 317 296 303 301 298 315 326 323 325 322 322 321 321 329 332 331 327 323 316 307 301
74 69 68 68 63 56 50 47 48 45 37 30 26 26 23 23 8 353 348 338 330 335 330 313 304 303 298 307 312 322 329 331 325 324 329 327 327 330 331 333 330 327 319
72 72 74 65 54 51 42 49 46 44 33 25 21 16 7 13 10 352 339 324 321 317 320 319 314 308 307 316 322 319 316 323 315 324 325 325 329 330 335 336 338 339 333
63 66 67 63 52 40 37 48 52 40 29 24 9 355 347 360 354 350 345 339 323 297 294 289 289 297 296 295 296 306 316 330 322 335 327 314 323 322 331 334 337 340 344
69 70 65 62 51 30 35 37 40 41 23 6 351 344 343 344 349 340 337 336 330 314 274 249 267 276 282 287 298 302 304 305 294 307 321 301 315 315 328 335 342 348 353
75 73 65 57 47 27 28 28 25 27 14 358 348 338 329 328 335 337 331 330 327 319 301 272 256 270 273 278 266 271 294 297 285 273 253 290 316 317 322 325 338 351 354
70 66 63 55 43 13 14 19 22 10 2 352 344 340 332 327 326 334 332 330 330 328 321 308 287 282 281 280 264 247 271 296 314 315 261 286 310 314 310 311 331 345 348
78 72 59 42 33 8 4 15 19 9 358 346 338 338 341 338 332 335 327 322 324 322 331 333 331 329 321 318 276 222 241 264 293 299 278 280 307 326 322 312 319 333 344